Location: Emblem
(62.4273°N, 6.4710°E)
Time: 00:56:45
(UTC+02:00)

UWE-3 - Pass Details

Date: 26 March 2023
Orbit: 577 x 669 km, 97.7° (Epoch: 06 June)

Event Time Altitude Azimuth Distance (km) Brightness Sun altitude
Rises 04:47:05 0° 17° (NNE) 3,035 ? -16.6°
Reaches altitude 10° 04:49:22 10° 20° (NNE) 2,110 ? -16.3°
Maximum altitude 04:53:58 69° 104° (ESE) 711 ? -15.9°
Enters shadow 04:57:32 16° 187° (S) 1,684 ? -15.6°
